Glens Falls, NY

10:41 AM EST on November 12, 2019 (GMT -0500)
Bennett Memorial

Weather History for KGFL - September, 2019

Change the Weather History Date:

Wednesday, September 4, 2019

  Actual Average Record
Temperature  
Mean Temperature 68 °F 63 °F  
Max Temperature 79 °F 75 °F 93 °F (1929)
Min Temperature 56 °F 51 °F 38 °F (1946)
Degree Days  
Heating Degree Days 0 4  
Month to date heating degree days 9 14  
Since 1 July heating degree days 37 80  
Cooling Degree Days 3 2  
Month to date cooling degree days 3 8  
Year to date cooling degree days 398 335  
Growing Degree Days 18 (Base 50)    
Moisture  
Dew Point 60 °F    
Average Humidity 72    
Maximum Humidity 97    
Minimum Humidity 47    
Precipitation  
Precipitation 0.31 in 0.10 in 2.75 in (1966)
Month to date precipitation 0.91 0.41  
Year to date precipitation 29.70 26.22  
Sea Level Pressure  
Sea Level Pressure 29.87 in    
Wind  
Wind Speed 7 mph (SW)    
Max Wind Speed 20 mph    
Max Gust Speed 29 mph    
Visibility 8 miles    
Events Rain , Thunderstorm    
T = Trace of Precipitation, MM = Missing Value Source: NWS Daily Summary

Daily Weather History Graph

Daily Weather History Graph

Search for Another Location

Airport or City:

Astronomy

Sep. 04, 2019 Rise Set
Actual Time 6:21 AM EDT 7:24 PM EDT
Civil Twilight 5:52 AM EDT 7:53 PM EDT
Nautical Twilight 5:17 AM EDT 8:28 PM EDT
Astronomical Twilight 4:40 AM EDT 9:05 PM EDT
Moon 12:29 PM EDT (9/4) 10:46 PM EDT (9/4)
Length of Visible Light 14h 01m
Length of Day
13h 03m
Waxing Crescent, 34% of the Moon is Illuminated
Sep 4
Waxing Crescent
Sep 5
First Quarter
Sep 14
Full
Sep 21
Last Quarter
Sep 28
New

Hourly Weather History & Observations

Time (EDT) Temp. Dew Point Humidity Pressure Visibility Wind Dir Wind Speed Gust Speed Precip Events Conditions
12:53 AM 60.1 °F 59.0 °F 96% 29.96 in 4.0 mi Calm Calm - N/A   Scattered Clouds
1:08 AM 59.0 °F 57.9 °F 96% 29.95 in 1.0 mi Calm Calm - N/A   Scattered Clouds
1:27 AM 59.0 °F 57.9 °F 96% 29.94 in 2.0 mi SSW 3.5 mph - N/A   Scattered Clouds
1:39 AM 61.0 °F 59.0 °F 93% 29.93 in 10.0 mi Calm Calm - N/A   Partly Cloudy
1:53 AM 62.1 °F 59.0 °F 90% 29.92 in 10.0 mi Calm Calm - N/A   Partly Cloudy
2:53 AM 57.9 °F 55.9 °F 93% 29.90 in 10.0 mi WNW 4.6 mph - N/A   Clear
3:53 AM 59.0 °F 55.9 °F 90% 29.89 in 10.0 mi Calm Calm - N/A   Clear
4:53 AM 57.9 °F 55.9 °F 93% 29.88 in 10.0 mi SSW 3.5 mph - N/A   Partly Cloudy
5:53 AM 62.1 °F 57.9 °F 86% 29.87 in 10.0 mi SSW 8.1 mph - N/A   Partly Cloudy
6:53 AM 63.0 °F 57.0 °F 81% 29.87 in 10.0 mi SSW 9.2 mph - N/A   Clear
7:53 AM 64.9 °F 57.0 °F 75% 29.86 in 10.0 mi SSW 8.1 mph - N/A   Clear
8:53 AM 66.9 °F 57.9 °F 73% 29.84 in 10.0 mi SW 6.9 mph - N/A   Scattered Clouds
9:53 AM 70.0 °F 61.0 °F 73% 29.85 in 10.0 mi SW 5.8 mph - N/A   Overcast
10:09 AM 69.1 °F 61.0 °F 75% 29.85 in 10.0 mi SW 4.6 mph - N/A   Overcast
10:53 AM 71.1 °F 64.0 °F 78% 29.83 in 10.0 mi South 3.5 mph - 0.00 in Rain Light Rain
11:53 AM 70.0 °F 64.0 °F 81% 29.82 in 10.0 mi SSW 8.1 mph - 0.00 in Rain Light Rain
12:11 PM 70.0 °F 64.9 °F 84% 29.82 in 10.0 mi SW 5.8 mph - 0.00 in   Overcast
12:38 PM 72.0 °F 66.0 °F 81% 29.81 in 10.0 mi South 8.1 mph - 0.00 in   Mostly Cloudy
12:53 PM 72.0 °F 66.0 °F 81% 29.81 in 10.0 mi SSW 8.1 mph - 0.00 in   Mostly Cloudy
1:10 PM 72.0 °F 66.0 °F 81% 29.80 in 10.0 mi South 11.5 mph - N/A   Mostly Cloudy
1:23 PM 72.0 °F 66.0 °F 81% 29.80 in 10.0 mi South 11.5 mph - N/A Thunderstorm Mostly Cloudy
1:38 PM 71.1 °F 66.0 °F 84% 29.83 in 1.8 mi West 8.1 mph - 0.15 in Rain , Thunderstorm Rain
1:41 PM 69.1 °F 66.9 °F 93% 29.82 in 0.8 mi WSW 11.5 mph - 0.28 in Rain , Thunderstorm Heavy Rain
1:43 PM 69.1 °F 66.0 °F 90% 29.81 in 0.8 mi SW 10.4 mph - 0.31 in Rain Heavy Rain
1:48 PM 68.0 °F 64.4 °F 88% 29.80 in 1.0 mi SSW 6.9 mph - 0.31 in Rain , Thunderstorm Light Rain
1:51 PM 68.0 °F 64.4 °F 88% 29.80 in 3.0 mi South 5.8 mph - 0.31 in Rain , Thunderstorm Light Rain
1:53 PM 68.0 °F 64.0 °F 87% 29.80 in 6.0 mi South 4.6 mph - 0.31 in Rain , Thunderstorm Light Rain
2:00 PM 69.1 °F 64.0 °F 84% 29.81 in 10.0 mi SSW 5.8 mph - 0.00 in   Mostly Cloudy
2:53 PM 75.0 °F 68.0 °F 79% 29.79 in 10.0 mi SSW 9.2 mph - 0.00 in   Clear
3:53 PM 79.0 °F 59.0 °F 50% 29.80 in 10.0 mi West 10.4 mph 23.0 mph N/A   Clear
4:53 PM 77.0 °F 55.0 °F 47% 29.83 in 10.0 mi West 17.3 mph 21.9 mph N/A   Clear
5:53 PM 73.9 °F 54.0 °F 50% 29.87 in 10.0 mi West 11.5 mph - N/A   Clear
6:53 PM 71.1 °F 53.1 °F 53% 29.90 in 10.0 mi West 10.4 mph - N/A   Partly Cloudy
7:53 PM 66.9 °F 53.1 °F 61% 29.94 in 10.0 mi WSW 4.6 mph - N/A   Clear
8:53 PM 63.0 °F 53.1 °F 70% 29.96 in 10.0 mi SW 5.8 mph - N/A   Clear
9:53 PM 60.1 °F 54.0 °F 80% 29.99 in 10.0 mi SW 5.8 mph - N/A   Clear
10:53 PM 63.0 °F 50.0 °F 63% 30.02 in 10.0 mi NNW 11.5 mph - N/A   Mostly Cloudy
11:53 PM 60.1 °F 48.0 °F 64% 30.04 in 10.0 mi NNW 9.2 mph - N/A   Clear